﻿測定場所 (Monitoring sites),日付 (Measurement date),時間 (Measurement time),線量率 最大値 (max) μGy/h,線量率 最小値 (min) μGy/h,線量率 平均値 (average) μGy/h,
新宿 (Shinjuku),2012-07-15,23:01～24:00,0.0518,0.0438,0.0474,
新宿 (Shinjuku),2012-07-15,22:01～23:00,0.0509,0.0437,0.0477,
新宿 (Shinjuku),2012-07-15,21:01～22:00,0.0504,0.0450,0.0477,
新宿 (Shinjuku),2012-07-15,20:01～21:00,0.0504,0.0442,0.0473,
新宿 (Shinjuku),2012-07-15,19:01～20:00,0.0534,0.0445,0.0474,
新宿 (Shinjuku),2012-07-15,18:01～19:00,0.0512,0.0446,0.0478,
新宿 (Shinjuku),2012-07-15,17:01～18:00,0.0509,0.0441,0.0479,
新宿 (Shinjuku),2012-07-15,16:01～17:00,0.0507,0.0442,0.0477,
新宿 (Shinjuku),2012-07-15,15:01～16:00,0.0508,0.0443,0.0480,
新宿 (Shinjuku),2012-07-15,14:01～15:00,0.0512,0.0442,0.0481,
新宿 (Shinjuku),2012-07-15,13:01～14:00,0.0515,0.0446,0.0478,
新宿 (Shinjuku),2012-07-15,12:01～13:00,0.0522,0.0451,0.0480,
新宿 (Shinjuku),2012-07-15,11:01～12:00,0.0517,0.0450,0.0481,
新宿 (Shinjuku),2012-07-15,10:01～11:00,0.0520,0.0445,0.0482,
新宿 (Shinjuku),2012-07-15,09:01～10:00,0.0523,0.0447,0.0485,
新宿 (Shinjuku),2012-07-15,08:01～09:00,0.0533,0.0453,0.0479,
新宿 (Shinjuku),2012-07-15,07:01～08:00,0.0517,0.0449,0.0485,
新宿 (Shinjuku),2012-07-15,06:01～07:00,0.0513,0.0456,0.0481,
新宿 (Shinjuku),2012-07-15,05:01～06:00,0.0521,0.0444,0.0477,
新宿 (Shinjuku),2012-07-15,04:01～05:00,0.0512,0.0440,0.0478,
新宿 (Shinjuku),2012-07-15,03:01～04:00,0.0516,0.0441,0.0480,
新宿 (Shinjuku),2012-07-15,02:01～03:00,0.0524,0.0437,0.0476,
新宿 (Shinjuku),2012-07-15,01:01～02:00,0.0500,0.0428,0.0473,
新宿 (Shinjuku),2012-07-15,00:01～01:00,0.0508,0.0447,0.0479,
新宿 (Shinjuku),2012-07-14,23:01～24:00,0.0521,0.0435,0.0479,
新宿 (Shinjuku),2012-07-14,22:01～23:00,0.0507,0.0446,0.0480,
新宿 (Shinjuku),2012-07-14,21:01～22:00,0.0510,0.0450,0.0476,
新宿 (Shinjuku),2012-07-14,20:01～21:00,0.0506,0.0442,0.0477,
新宿 (Shinjuku),2012-07-14,19:01～20:00,0.0532,0.0447,0.0478,
新宿 (Shinjuku),2012-07-14,18:01～19:00,0.0520,0.0455,0.0484,
新宿 (Shinjuku),2012-07-14,17:01～18:00,0.0514,0.0447,0.0480,
新宿 (Shinjuku),2012-07-14,16:01～17:00,0.0521,0.0442,0.0483,
新宿 (Shinjuku),2012-07-14,15:01～16:00,0.0510,0.0447,0.0481,
新宿 (Shinjuku),2012-07-14,14:01～15:00,0.0520,0.0444,0.0486,
新宿 (Shinjuku),2012-07-14,13:01～14:00,0.0515,0.0456,0.0488,
新宿 (Shinjuku),2012-07-14,12:01～13:00,0.0513,0.0444,0.0486,
新宿 (Shinjuku),2012-07-14,11:01～12:00,0.0526,0.0460,0.0488,
新宿 (Shinjuku),2012-07-14,10:01～11:00,0.0522,0.0448,0.0484,
新宿 (Shinjuku),2012-07-14,09:01～10:00,0.0525,0.0444,0.0483,
新宿 (Shinjuku),2012-07-14,08:01～09:00,0.0521,0.0442,0.0483,
新宿 (Shinjuku),2012-07-14,07:01～08:00,0.0528,0.0456,0.0485,
新宿 (Shinjuku),2012-07-14,06:01～07:00,0.0527,0.0463,0.0492,
新宿 (Shinjuku),2012-07-14,05:01～06:00,0.0610,0.0489,0.0539,
新宿 (Shinjuku),2012-07-14,04:01～05:00,0.0624,0.0556,0.0591,
新宿 (Shinjuku),2012-07-14,03:01～04:00,0.0626,0.0544,0.0585,
新宿 (Shinjuku),2012-07-14,02:01～03:00,0.0625,0.0547,0.0587,
新宿 (Shinjuku),2012-07-14,01:01～02:00,0.0605,0.0482,0.0551,
新宿 (Shinjuku),2012-07-14,00:01～01:00,0.0522,0.0461,0.0489,
新宿 (Shinjuku),2012-07-13,23:01～24:00,0.0509,0.0459,0.0483,
新宿 (Shinjuku),2012-07-13,22:01～23:00,0.0518,0.0456,0.0486,
新宿 (Shinjuku),2012-07-13,21:01～22:00,0.0525,0.0454,0.0482,
新宿 (Shinjuku),2012-07-13,20:01～21:00,0.0515,0.0452,0.0488,
新宿 (Shinjuku),2012-07-13,19:01～20:00,0.0516,0.0447,0.0481,
新宿 (Shinjuku),2012-07-13,18:01～19:00,0.0518,0.0435,0.0479,
新宿 (Shinjuku),2012-07-13,17:01～18:00,0.0505,0.0455,0.0480,
新宿 (Shinjuku),2012-07-13,16:01～17:00,0.0520,0.0447,0.0483,
新宿 (Shinjuku),2012-07-13,15:01～16:00,0.0516,0.0448,0.0483,
新宿 (Shinjuku),2012-07-13,14:01～15:00,0.0520,0.0445,0.0482,
新宿 (Shinjuku),2012-07-13,13:01～14:00,0.0512,0.0450,0.0484,
新宿 (Shinjuku),2012-07-13,12:01～13:00,0.0524,0.0448,0.0482,
新宿 (Shinjuku),2012-07-13,11:01～12:00,0.0511,0.0448,0.0477,
新宿 (Shinjuku),2012-07-13,10:01～11:00,0.0522,0.0454,0.0482,
新宿 (Shinjuku),2012-07-13,09:01～10:00,0.0525,0.0444,0.0485,
新宿 (Shinjuku),2012-07-13,08:01～09:00,0.0515,0.0439,0.0479,
新宿 (Shinjuku),2012-07-13,07:01～08:00,0.0526,0.0445,0.0484,
新宿 (Shinjuku),2012-07-13,06:01～07:00,0.0524,0.0442,0.0480,
新宿 (Shinjuku),2012-07-13,05:01～06:00,0.0511,0.0455,0.0482,
新宿 (Shinjuku),2012-07-13,04:01～05:00,0.0537,0.0460,0.0496,
新宿 (Shinjuku),2012-07-13,03:01～04:00,0.0600,0.0487,0.0537,
新宿 (Shinjuku),2012-07-13,02:01～03:00,0.0610,0.0522,0.0581,
新宿 (Shinjuku),2012-07-13,01:01～02:00,0.0616,0.0532,0.0572,
新宿 (Shinjuku),2012-07-13,00:01～01:00,0.0567,0.0492,0.0536,
新宿 (Shinjuku),2012-07-12,23:01～24:00,0.0621,0.0525,0.0577,
新宿 (Shinjuku),2012-07-12,22:01～23:00,0.0633,0.0451,0.0528,
新宿 (Shinjuku),2012-07-12,21:01～22:00,0.0514,0.0441,0.0480,
新宿 (Shinjuku),2012-07-12,20:01～21:00,0.0533,0.0450,0.0479,
新宿 (Shinjuku),2012-07-12,19:01～20:00,0.0517,0.0435,0.0478,
新宿 (Shinjuku),2012-07-12,18:01～19:00,0.0511,0.0453,0.0481,
新宿 (Shinjuku),2012-07-12,17:01～18:00,0.0506,0.0442,0.0477,
新宿 (Shinjuku),2012-07-12,16:01～17:00,0.0514,0.0449,0.0479,
新宿 (Shinjuku),2012-07-12,15:01～16:00,0.0522,0.0443,0.0485,
新宿 (Shinjuku),2012-07-12,14:01～15:00,0.0540,0.0465,0.0498,
新宿 (Shinjuku),2012-07-12,13:01～14:00,0.0526,0.0467,0.0501,
新宿 (Shinjuku),2012-07-12,12:01～13:00,0.0544,0.0472,0.0497,
新宿 (Shinjuku),2012-07-12,11:01～12:00,0.0537,0.0473,0.0503,
新宿 (Shinjuku),2012-07-12,10:01～11:00,0.0547,0.0467,0.0502,
新宿 (Shinjuku),2012-07-12,09:01～10:00,0.0522,0.0455,0.0485,
新宿 (Shinjuku),2012-07-12,08:01～09:00,0.0517,0.0441,0.0480,
新宿 (Shinjuku),2012-07-12,07:01～08:00,0.0508,0.0444,0.0475,
新宿 (Shinjuku),2012-07-12,06:01～07:00,0.0508,0.0443,0.0477,
新宿 (Shinjuku),2012-07-12,05:01～06:00,0.0525,0.0446,0.0480,
新宿 (Shinjuku),2012-07-12,04:01～05:00,0.0524,0.0451,0.0478,
新宿 (Shinjuku),2012-07-12,03:01～04:00,0.0505,0.0445,0.0478,
新宿 (Shinjuku),2012-07-12,02:01～03:00,0.0517,0.0451,0.0481,
新宿 (Shinjuku),2012-07-12,01:01～02:00,0.0509,0.0444,0.0474,
新宿 (Shinjuku),2012-07-12,00:01～01:00,0.0515,0.0452,0.0477,
新宿 (Shinjuku),2012-07-11,23:01～24:00,0.0514,0.0431,0.0475,
新宿 (Shinjuku),2012-07-11,22:01～23:00,0.0502,0.0444,0.0477,
新宿 (Shinjuku),2012-07-11,21:01～22:00,0.0508,0.0438,0.0475,
新宿 (Shinjuku),2012-07-11,20:01～21:00,0.0524,0.0442,0.0478,
新宿 (Shinjuku),2012-07-11,19:01～20:00,0.0504,0.0443,0.0477,
新宿 (Shinjuku),2012-07-11,18:01～19:00,0.0504,0.0438,0.0479,
新宿 (Shinjuku),2012-07-11,17:01～18:00,0.0512,0.0448,0.0480,
新宿 (Shinjuku),2012-07-11,16:01～17:00,0.0532,0.0444,0.0484,
新宿 (Shinjuku),2012-07-11,15:01～16:00,0.0518,0.0456,0.0485,
新宿 (Shinjuku),2012-07-11,14:01～15:00,0.0513,0.0444,0.0483,
新宿 (Shinjuku),2012-07-11,13:01～14:00,0.0517,0.0447,0.0482,
新宿 (Shinjuku),2012-07-11,12:01～13:00,0.0516,0.0460,0.0489,
新宿 (Shinjuku),2012-07-11,11:01～12:00,0.0523,0.0451,0.0484,
新宿 (Shinjuku),2012-07-11,10:01～11:00,0.0512,0.0447,0.0481,
新宿 (Shinjuku),2012-07-11,09:01～10:00,0.0513,0.0452,0.0486,
新宿 (Shinjuku),2012-07-11,08:01～09:00,0.0525,0.0450,0.0488,
新宿 (Shinjuku),2012-07-11,07:01～08:00,0.0503,0.0460,0.0484,
新宿 (Shinjuku),2012-07-11,06:01～07:00,0.0516,0.0447,0.0485,
新宿 (Shinjuku),2012-07-11,05:01～06:00,0.0519,0.0456,0.0485,
新宿 (Shinjuku),2012-07-11,04:01～05:00,0.0516,0.0457,0.0483,
新宿 (Shinjuku),2012-07-11,03:01～04:00,0.0515,0.0459,0.0486,
新宿 (Shinjuku),2012-07-11,02:01～03:00,0.0535,0.0451,0.0484,
新宿 (Shinjuku),2012-07-11,01:01～02:00,0.0529,0.0453,0.0487,
新宿 (Shinjuku),2012-07-11,00:01～01:00,0.0533,0.0455,0.0486,
新宿 (Shinjuku),2012-07-10,23:01～24:00,0.0517,0.0440,0.0478,
新宿 (Shinjuku),2012-07-10,22:01～23:00,0.0504,0.0441,0.0474,
新宿 (Shinjuku),2012-07-10,21:01～22:00,0.0512,0.0452,0.0482,
新宿 (Shinjuku),2012-07-10,20:01～21:00,0.0509,0.0450,0.0477,
新宿 (Shinjuku),2012-07-10,19:01～20:00,0.0523,0.0435,0.0481,
新宿 (Shinjuku),2012-07-10,18:01～19:00,0.0506,0.0446,0.0481,
新宿 (Shinjuku),2012-07-10,17:01～18:00,0.0518,0.0451,0.0484,
新宿 (Shinjuku),2012-07-10,16:01～17:00,0.0514,0.0444,0.0482,
新宿 (Shinjuku),2012-07-10,15:01～16:00,0.0527,0.0449,0.0480,
新宿 (Shinjuku),2012-07-10,14:01～15:00,0.0528,0.0454,0.0483,
新宿 (Shinjuku),2012-07-10,13:01～14:00,0.0529,0.0451,0.0491,
新宿 (Shinjuku),2012-07-10,12:01～13:00,0.0531,0.0447,0.0487,
新宿 (Shinjuku),2012-07-10,11:01～12:00,0.0519,0.0451,0.0484,
新宿 (Shinjuku),2012-07-10,10:01～11:00,0.0525,0.0457,0.0486,
新宿 (Shinjuku),2012-07-10,09:01～10:00,0.0524,0.0440,0.0488,
新宿 (Shinjuku),2012-07-10,08:01～09:00,0.0517,0.0460,0.0488,
新宿 (Shinjuku),2012-07-10,07:01～08:00,0.0521,0.0444,0.0487,
新宿 (Shinjuku),2012-07-10,06:01～07:00,0.0532,0.0461,0.0491,
新宿 (Shinjuku),2012-07-10,05:01～06:00,0.0512,0.0448,0.0482,
新宿 (Shinjuku),2012-07-10,04:01～05:00,0.0513,0.0454,0.0484,
新宿 (Shinjuku),2012-07-10,03:01～04:00,0.0506,0.0449,0.0482,
新宿 (Shinjuku),2012-07-10,02:01～03:00,0.0529,0.0441,0.0479,
新宿 (Shinjuku),2012-07-10,01:01～02:00,0.0535,0.0457,0.0485,
新宿 (Shinjuku),2012-07-10,00:01～01:00,0.0520,0.0452,0.0481,
新宿 (Shinjuku),2012-07-09,23:01～24:00,0.0515,0.0448,0.0481,
新宿 (Shinjuku),2012-07-09,22:01～23:00,0.0519,0.0437,0.0477,
新宿 (Shinjuku),2012-07-09,21:01～22:00,0.0523,0.0437,0.0479,
新宿 (Shinjuku),2012-07-09,20:01～21:00,0.0508,0.0443,0.0478,
新宿 (Shinjuku),2012-07-09,19:01～20:00,0.0503,0.0439,0.0478,
新宿 (Shinjuku),2012-07-09,18:01～19:00,0.0504,0.0449,0.0479,
新宿 (Shinjuku),2012-07-09,17:01～18:00,0.0523,0.0447,0.0482,
新宿 (Shinjuku),2012-07-09,16:01～17:00,0.0512,0.0438,0.0480,
新宿 (Shinjuku),2012-07-09,15:01～16:00,0.0512,0.0446,0.0482,
新宿 (Shinjuku),2012-07-09,14:01～15:00,0.0522,0.0448,0.0488,
新宿 (Shinjuku),2012-07-09,13:01～14:00,0.0532,0.0448,0.0488,
新宿 (Shinjuku),2012-07-09,12:01～13:00,0.0525,0.0450,0.0483,
新宿 (Shinjuku),2012-07-09,11:01～12:00,0.0519,0.0458,0.0485,
新宿 (Shinjuku),2012-07-09,10:01～11:00,0.0521,0.0455,0.0483,
新宿 (Shinjuku),2012-07-09,09:01～10:00,0.0514,0.0444,0.0482,
新宿 (Shinjuku),2012-07-09,08:01～09:00,0.0521,0.0453,0.0482,
新宿 (Shinjuku),2012-07-09,07:01～08:00,0.0522,0.0444,0.0483,
新宿 (Shinjuku),2012-07-09,06:01～07:00,0.0516,0.0446,0.0486,
新宿 (Shinjuku),2012-07-09,05:01～06:00,0.0526,0.0449,0.0477,
新宿 (Shinjuku),2012-07-09,04:01～05:00,0.0516,0.0444,0.0479,
新宿 (Shinjuku),2012-07-09,03:01～04:00,0.0520,0.0436,0.0480,
新宿 (Shinjuku),2012-07-09,02:01～03:00,0.0503,0.0442,0.0478,
新宿 (Shinjuku),2012-07-09,01:01～02:00,0.0520,0.0444,0.0483,
新宿 (Shinjuku),2012-07-09,00:01～01:00,0.0518,0.0455,0.0479,
